Regional Weather Roundup
Issued by NWS Sioux Falls, SD

Home | Current Version | Previous Version | Graphics & Text | Print | Product List | Glossary On
Versions: 1 2 3 4 5 6 7 8 9 10 11 12 13 14 15 16 17 18 19 20 21 22 23 24 25 26 27 28 29 30 31 32 33 34 35 36 37 38 39 40 41 42 43 44 45 46 47 48 49 50
000
ASUS43 KFSD 160410
RWRFSD

WEATHER ROUNDUP FOR SE SOUTH DAKOTA/SW MINNESOTA/NW IOWA
NATIONAL WEATHER SERVICE SIOUX FALLS SD
1100 PM CDT MON SEP 15 2014

NOTE: "FAIR" INDICATES FEW OR NO CLOUDS BELOW 12,000 FEET WITH NO
SIGNIFICANT WEATHER AND OR OBSTRUCTIONS TO VISIBILITY.


SDZ038>040-050-052>070-160500-
SOUTHEAST SOUTH DAKOTA

CITY           SKY/WX    TMP DP  RH WIND       PRES   REMARKS
CHAMBERLAIN    CLEAR     44  38  77 SE6       30.20F
HURON          CLEAR     49  35  58 SE5       30.21F
MADISON        FAIR      41  41 100 S3        30.24S
MITCHELL       CLEAR     50  42  74 S5        30.24S
SIOUX FALLS    CLEAR     46  43  89 CALM      30.24S
WINNER         FAIR      50  39  66 SE12      30.20F
YANKTON        CLEAR     48  41  76 CALM      30.25S
$$

MNZ071-072-080-081-089-090-097-098-160500-
SOUTHWEST MINNESOTA

CITY           SKY/WX    TMP DP  RH WIND       PRES   REMARKS
FAIRMONT       CLEAR     45  37  76 CALM      30.24S
JACKSON        CLEAR     43  39  87 CALM      30.25S
LUVERNE        CLEAR     45  41  87 CALM      30.25S
MARSHALL       CLEAR     43  37  81 CALM      30.22S
MONTEVIDEO     CLEAR     45  39  81 W3        30.23S
PIPESTONE      CLEAR     46 N/A N/A CALM      30.24S
REDWOOD FALLS  CLEAR     46  39  76 CALM      30.22F
TRACY          CLEAR     47  42  83 CALM      30.24S
WINDOM         CLEAR     43  39  87 CALM      30.24S
WORTHINGTON    CLEAR     43  39  87 SW3       30.25S
$$

IAZ001>003-012>014-020>022-031-032-NEZ013-014-SDZ071-160500-
NORTHWEST IOWA

CITY           SKY/WX    TMP DP  RH WIND       PRES   REMARKS
CHEROKEE       CLEAR     41  41 100 CALM      30.26S
DENISON        CLEAR     45  45 100 CALM      30.25R
ESTHERVILLE    CLEAR     42  40  92 SW6       30.25R
LE MARS          N/A     43  43 100 CALM      30.26S
ORANGE CITY    CLEAR     50  41  71 CALM      30.26R
SHELDON        CLEAR     41  41 100 CALM      30.24S
SIOUX CITY     CLEAR     44  42  93 CALM      30.26S
SPENCER        CLEAR     43  40  89 CALM      30.25S
STORM LAKE     CLEAR     46  45  93 CALM      30.25S
$$

ABBREVIATIONS USED IN REMARKS
   TC - TEMPERATURE IN CELSIUS
  WCI - WIND CHILL INDEX
   HX - HEAT INDEX
  VSB - VISIBILITY



USA.gov is the U.S. government's official web portal to all federal, state and local government web resources and services.